Tracking 21476 objects as of 29-Sep-2020
HD Live streaming from Space Station
objects crossing your sky now

STARLINK-1195

Track STARLINK-1195 now!
10-day predictions
STARLINK-1195 is classified as:


NORAD ID: 45102
Int'l Code: 2020-006BK
Perigee: 555.6 km
Apogee: 558.1 km
Inclination: 53.0 °
Period: 95.6 minutes
Semi major axis: 6927 km
RCS: Unknown
Launch date: January 29, 2020
Source: United States (US)
Launch site: AIR FORCE EASTERN TEST RANGE (AFETR)
aabbcc
Your satellite tracking list
Your tracking list is empty




NASA's NSSDC Master Catalog

Two Line Element Set (TLE):
1 45102U 20006BL  20272.91667824 -.00024433 +00000-0 -16629-2 0  9990
2 45102 052.9994 170.0851 0001827 073.0947 196.8000 15.05591411001751
Source of the keplerian elements: AFSPC